�N����,����,�~����,�C��,���x,�C��,����,���ϕ���,�ő�u�ԕ���,�ő厞����,���˗�,�I�_���x,�n�����x,�ő啗���N��,DTYPE
"20/09/24","00:10",0.0,21.2,83.6,1006.2,314.0,0.8,1.6,322.6,0.00,18.4,23.4,"00:00:16",1
"20/09/24","00:20",0.0,21.4,84.0,1006.0,323.0,1.2,1.8,306.4,0.00,18.6,23.4,"00:14:00",1
"20/09/24","00:30",0.0,21.6,84.1,1006.0,324.1,1.8,3.2,327.3,0.00,18.8,23.3,"00:28:24",1
"20/09/24","00:40",0.0,21.9,83.7,1005.7,317.0,1.8,3.4,336.4,0.00,19.1,23.1,"00:39:44",1
"20/09/24","00:50",0.0,22.2,82.8,1006.2,323.9,2.6,4.4,340.9,0.00,19.2,23.2,"00:43:44",1
"20/09/24","01:00",0.0,22.2,82.2,1006.2,314.2,1.7,3.5,346.5,0.00,19.1,23.2,"00:59:36",1
"20/09/24","01:10",0.0,22.2,81.9,1006.0,307.6,1.6,3.2,329.3,0.00,19.0,23.1,"01:05:36",1
"20/09/24","01:20",0.0,22.4,81.7,1006.0,328.1,1.3,2.6,343.5,0.00,19.2,23.1,"01:19:04",1
"20/09/24","01:30",0.0,22.2,81.7,1006.0,322.1,1.2,2.4,328.4,0.00,19.0,23.2,"01:23:52",1
"20/09/24","01:40",0.0,22.1,81.9,1005.7,308.8,0.8,1.3,328.7,0.00,18.9,23.2,"01:39:52",1
"20/09/24","01:50",0.0,22.0,82.1,1006.0,320.7,1.3,2.1,333.1,0.00,18.8,23.0,"01:44:08",1
"20/09/24","02:00",0.0,21.8,82.5,1006.2,326.2,0.8,1.7,330.6,0.00,18.7,23.1,"01:58:08",1
"20/09/24","02:10",0.0,21.5,83.3,1006.2,321.5,1.3,1.7,313.1,0.00,18.6,23.1,"02:03:04",1
"20/09/24","02:20",0.0,21.5,84.2,1005.7,326.2,1.6,2.4,331.9,0.00,18.8,23.1,"02:15:04",1
"20/09/24","02:30",0.0,21.5,84.9,1005.2,322.0,1.6,2.0,327.7,0.00,18.9,23.2,"02:25:04",1
"20/09/24","02:40",0.0,21.5,85.2,1005.5,330.7,1.6,2.2,333.2,0.00,19.0,23.2,"02:33:28",1
"20/09/24","02:50",0.0,21.6,85.5,1005.7,328.8,2.0,3.5,337.2,0.00,19.1,23.1,"02:49:44",1
"20/09/24","03:00",0.0,21.8,85.3,1005.0,327.5,2.2,3.9,336.4,0.00,19.3,22.9,"02:52:40",1
"20/09/24","03:10",0.0,21.8,85.1,1005.0,327.6,1.7,2.9,329.3,0.00,19.2,22.8,"03:02:32",1
"20/09/24","03:20",0.0,21.8,85.1,1005.0,332.6,2.0,4.3,327.5,0.00,19.2,23.0,"03:15:28",1
"20/09/24","03:30",0.0,21.8,85.1,1005.0,338.6,1.5,3.6,338.1,0.00,19.2,23.0,"03:21:28",1
"20/09/24","03:40",0.0,21.8,85.1,1005.2,349.4,1.3,2.5,357.8,0.00,19.2,23.1,"03:30:02",1
"20/09/24","03:50",0.0,21.7,85.1,1005.0,335.8,1.3,2.1,339.0,0.00,19.1,23.0,"03:44:16",1
"20/09/24","04:00",0.0,21.7,85.3,1005.2,330.0,1.2,1.9,335.2,0.00,19.2,22.8,"03:51:20",1
"20/09/24","04:10",0.0,21.6,85.5,1005.2,327.1,1.2,1.9,331.9,0.00,19.1,22.9,"04:05:44",1
"20/09/24","04:20",0.0,21.6,85.7,1005.0,328.3,1.6,2.5,335.6,0.00,19.1,22.9,"04:13:12",1
"20/09/24","04:30",0.0,21.6,85.9,1005.2,318.7,1.0,2.5,325.7,0.00,19.2,22.8,"04:28:16",1
"20/09/24","04:40",0.0,21.8,86.0,1005.2,330.3,1.8,3.6,346.6,0.00,19.4,22.7,"04:35:44",1
"20/09/24","04:50",0.0,21.9,85.9,1005.2,320.0,1.7,4.5,341.7,0.00,19.5,22.9,"04:44:00",1
"20/09/24","05:00",0.0,21.9,85.7,1005.5,331.8,1.8,2.8,313.4,0.00,19.4,22.8,"04:56:24",1
"20/09/24","05:10",0.0,21.8,85.7,1005.7,322.3,1.2,2.4,326.8,0.00,19.3,22.9,"05:03:44",1
"20/09/24","05:20",0.0,21.8,85.7,1005.2,324.5,1.2,1.9,334.5,0.00,19.3,22.7,"05:17:52",1
"20/09/24","05:30",0.0,21.7,85.7,1005.7,339.9,1.3,2.0,329.8,0.00,19.2,22.7,"05:20:02",1
"20/09/24","05:40",0.0,21.7,85.8,1005.5,335.6,1.6,2.6,346.0,0.00,19.3,22.9,"05:35:36",1
"20/09/24","05:50",0.0,21.6,86.1,1005.5,335.4,1.6,2.1,342.0,0.00,19.2,22.7,"05:40:56",1
"20/09/24","06:00",0.0,21.6,86.4,1005.5,330.3,1.7,3.7,336.0,0.00,19.3,22.6,"05:56:56",1
"20/09/24","06:10",0.0,21.8,86.5,1005.7,326.5,2.1,3.5,320.5,0.00,19.5,22.9,"06:08:40",1
"20/09/24","06:20",0.0,21.9,86.4,1005.7,331.5,2.1,4.8,347.0,0.00,19.6,22.8,"06:12:00",1
"20/09/24","06:30",0.0,22.0,86.3,1006.0,323.9,1.7,3.2,339.5,0.00,19.6,22.8,"06:24:32",1
"20/09/24","06:40",0.0,22.1,86.1,1006.4,318.4,1.7,3.5,321.8,0.00,19.7,22.8,"06:31:04",1
"20/09/24","06:50",0.0,22.2,85.9,1006.2,320.4,1.3,2.9,330.8,0.01,19.8,22.7,"06:45:28",1
"20/09/24","07:00",0.0,22.3,85.8,1006.0,330.8,1.2,2.0,322.5,0.02,19.8,22.9,"06:53:28",1
"20/09/24","07:10",0.0,22.5,85.6,1006.0,322.8,1.5,2.2,337.2,0.05,20.0,22.8,"07:05:28",1
"20/09/24","07:20",0.0,22.9,85.3,1006.2,332.8,1.1,2.7,334.9,0.06,20.3,22.9,"07:14:16",1
"20/09/24","07:30",0.0,23.1,84.8,1006.2,324.4,1.1,2.1,352.7,0.07,20.4,22.9,"07:26:40",1
"20/09/24","07:40",0.0,23.3,83.7,1006.2,228.1,0.7,1.6,207.0,0.06,20.4,22.9,"07:31:36",1
"20/09/24","07:50",0.0,23.4,82.9,1006.2,202.9,0.3,1.0,228.1,0.06,20.4,23.2,"07:40:08",1
"20/09/24","08:00",0.0,23.9,82.6,1006.4,276.4,0.2,0.6,290.3,0.10,20.8,23.0,"07:54:08",1
"20/09/24","08:10",0.0,23.9,81.5,1006.2,192.5,0.6,1.3,125.8,0.08,20.6,23.1,"08:05:04",1
"20/09/24","08:20",0.0,24.1,81.1,1006.0,254.6,0.6,1.1,246.3,0.10,20.7,23.5,"08:14:40",1
"20/09/24","08:30",0.0,24.5,80.3,1005.7,223.9,0.3,0.6,146.4,0.15,20.9,23.4,"08:23:36",1
"20/09/24","08:40",0.0,25.0,78.8,1005.7,176.0,0.5,1.6,188.5,0.18,21.1,23.6,"08:32:16",1
"20/09/24","08:50",0.0,25.2,77.3,1005.7,131.0,0.3,1.0,117.6,0.14,21.0,23.7,"08:46:00",1
"20/09/24","09:00",0.0,25.3,76.6,1005.7,268.3,0.5,1.7,334.2,0.13,20.9,23.8,"08:56:32",1
"20/09/24","09:10",0.0,25.3,75.7,1005.7,197.5,0.5,1.4,44.4,0.15,20.7,24.2,"09:09:36",1
"20/09/24","09:20",0.0,25.5,75.5,1005.7,57.5,0.7,1.7,346.6,0.19,20.9,24.1,"09:18:32",1
"20/09/24","09:30",0.0,25.5,74.9,1005.5,33.3,1.0,1.8,58.1,0.21,20.8,24.2,"09:26:24",1
"20/09/24","09:40",0.0,25.7,74.3,1005.2,200.4,1.0,2.2,223.1,0.21,20.8,24.3,"09:34:16",1
"20/09/24","09:50",0.0,26.0,73.8,1004.8,95.2,0.8,2.4,111.2,0.21,21.0,24.4,"09:45:28",1
"20/09/24","10:00",0.0,26.1,74.1,1004.3,139.3,1.0,2.8,131.4,0.21,21.2,24.5,"09:53:44",1
"20/09/24","10:10",0.0,26.6,73.6,1004.5,102.1,0.7,2.2,108.6,0.37,21.5,24.7,"10:04:16",1
"20/09/24","10:20",0.0,27.1,70.0,1005.0,211.0,1.2,3.2,206.6,0.37,21.2,24.9,"10:16:56",1
"20/09/24","10:30",0.0,27.1,70.2,1004.8,172.3,0.8,2.1,223.4,0.25,21.2,25.2,"10:21:36",1
"20/09/24","10:40",0.0,27.2,69.6,1004.8,124.8,1.0,2.0,125.3,0.28,21.2,25.0,"10:31:12",1
"20/09/24","10:50",0.0,26.7,69.9,1004.5,209.0,1.8,3.7,214.4,0.24,20.8,25.3,"10:41:20",1
"20/09/24","11:00",0.0,26.7,69.6,1004.5,182.7,1.2,2.5,207.3,0.26,20.7,25.4,"10:57:28",1
"20/09/24","11:10",0.0,27.3,68.8,1004.5,172.1,0.7,2.5,210.5,0.24,21.1,25.6,"11:03:20",1
"20/09/24","11:20",0.0,27.2,68.4,1005.0,194.7,1.1,3.2,220.8,0.21,20.9,25.4,"11:10:40",1
"20/09/24","11:30",0.0,27.1,67.6,1004.3,158.4,1.3,2.4,203.6,0.24,20.6,25.7,"11:28:16",1
"20/09/24","11:40",0.0,27.6,66.7,1004.8,172.2,1.0,2.1,198.7,0.28,20.9,25.8,"11:32:24",1
"20/09/24","11:50",0.0,27.6,66.6,1004.8,215.0,1.1,2.7,224.4,0.24,20.9,25.5,"11:41:04",1
"20/09/24","12:00",0.0,27.8,65.4,1004.5,96.1,0.7,1.7,107.6,0.23,20.8,25.8,"11:59:52",1
"20/09/24","12:10",0.0,28.2,64.0,1004.3,103.8,0.7,2.2,114.9,0.35,20.8,26.0,"12:02:40",1
"20/09/24","12:20",0.0,28.5,62.5,1004.8,337.7,0.7,2.5,224.1,0.23,20.7,26.2,"12:18:00",1
"20/09/24","12:30",0.0,28.2,63.0,1004.5,198.2,0.6,1.9,198.4,0.17,20.5,26.1,"12:20:24",1
"20/09/24","12:40",0.0,28.5,62.9,1004.5,61.9,0.5,1.6,340.0,0.18,20.8,26.3,"12:30:02",1
"20/09/24","12:50",0.0,28.5,62.7,1004.3,23.1,1.0,1.9,5.6,0.23,20.7,26.5,"12:43:20",1
"20/09/24","13:00",0.0,28.9,62.5,1004.5,238.5,0.7,1.6,234.7,0.27,21.1,26.4,"12:58:56",1
"20/09/24","13:10",0.0,28.9,62.5,1004.5,256.5,0.5,1.3,333.0,0.21,21.1,26.4,"13:02:32",1
"20/09/24","13:20",0.0,28.8,63.5,1004.5,181.5,0.8,1.9,132.4,0.19,21.2,26.4,"13:15:12",1
"20/09/24","13:30",0.0,28.3,64.1,1004.1,181.6,1.1,2.2,160.0,0.12,20.9,26.2,"13:28:16",1
"20/09/24","13:40",0.0,27.5,68.6,1003.4,198.7,1.8,3.5,219.8,0.14,21.3,26.3,"13:33:12",1
"20/09/24","13:50",0.0,27.4,70.6,1003.1,159.2,1.0,2.9,212.4,0.20,21.6,26.3,"13:46:08",1
"20/09/24","14:00",0.0,27.6,69.2,1003.1,181.5,1.0,2.4,206.4,0.18,21.5,26.5,"13:54:32",1
"20/09/24","14:10",0.0,27.6,68.2,1002.6,218.8,1.2,2.2,232.8,0.12,21.3,26.2,"14:08:24",1
"20/09/24","14:20",0.0,27.8,68.4,1002.6,203.2,0.8,2.1,205.3,0.10,21.5,26.2,"14:13:04",1
"20/09/24","14:30",0.0,27.7,67.6,1002.9,209.3,0.6,1.7,230.5,0.09,21.2,26.1,"14:27:12",1
"20/09/24","14:40",0.0,28.1,67.9,1002.4,329.6,0.8,1.8,350.2,0.09,21.7,26.3,"14:37:44",1
"20/09/24","14:50",0.0,27.9,69.6,1002.4,336.4,1.3,2.5,339.6,0.14,21.9,26.0,"14:47:52",1
"20/09/24","15:00",0.0,27.4,71.4,1002.6,334.9,2.0,3.5,332.6,0.12,21.8,26.4,"14:52:56",1
"20/09/24","15:10",0.0,26.7,73.7,1002.4,331.8,2.0,2.9,348.4,0.05,21.7,26.3,"15:04:56",1
"20/09/24","15:20",0.0,26.2,76.1,1002.9,332.7,1.8,4.0,338.3,0.02,21.7,26.3,"15:12:32",1
"20/09/24","15:30",0.0,25.9,77.3,1003.1,324.7,1.6,3.1,335.4,0.03,21.7,26.2,"15:20:08",1
"20/09/24","15:40",0.0,25.8,77.6,1002.9,323.3,1.3,2.5,330.1,0.03,21.6,26.0,"15:39:28",1
"20/09/24","15:50",0.0,25.7,76.3,1002.9,303.9,1.1,2.7,313.0,0.03,21.3,25.8,"15:49:12",1
"20/09/24","16:00",0.0,25.7,75.2,1002.9,299.9,1.2,2.4,349.3,0.02,21.0,26.0,"15:53:28",1
"20/09/24","16:10",0.0,25.5,75.0,1002.9,295.5,1.2,2.4,279.1,0.01,20.8,25.6,"16:02:40",1
"20/09/24","16:20",0.0,25.3,74.9,1002.9,334.6,1.5,3.6,339.1,0.00,20.6,25.7,"16:13:20",1
"20/09/24","16:30",0.0,25.3,75.4,1002.6,326.5,1.3,2.2,336.2,0.02,20.7,25.8,"16:22:00",1
"20/09/24","16:40",0.0,25.1,75.7,1002.9,309.1,1.2,2.9,341.1,0.00,20.5,25.6,"16:34:32",1
"20/09/24","16:50",0.0,24.9,76.1,1003.1,309.1,1.3,3.2,339.9,0.00,20.4,25.6,"16:42:24",1
"20/09/24","17:00",0.0,24.6,76.3,1003.4,303.8,1.2,2.5,338.6,0.00,20.2,25.7,"16:54:40",1
"20/09/24","17:10",0.0,24.5,76.3,1003.1,302.8,1.0,1.9,342.0,0.00,20.1,25.4,"17:04:48",1
"20/09/24","17:20",0.0,24.4,76.6,1002.9,304.2,1.2,2.6,338.5,0.00,20.1,25.3,"17:19:28",1
"20/09/24","17:30",0.0,24.3,76.9,1002.9,312.0,1.5,2.9,323.1,0.00,20.0,25.2,"17:27:28",1
"20/09/24","17:40",0.0,24.3,77.3,1003.1,313.8,1.5,3.3,345.4,0.00,20.1,25.2,"17:37:52",1
"20/09/24","17:50",0.0,24.2,77.5,1002.9,298.3,1.1,2.7,341.3,0.00,20.1,25.2,"17:40:56",1
"20/09/24","18:00",0.0,24.1,78.1,1003.1,301.0,0.8,2.6,337.2,0.00,20.1,25.0,"17:59:28",1
"20/09/24","18:10",0.0,23.9,78.8,1003.1,318.8,1.2,2.0,333.9,0.00,20.0,25.2,"18:00:08",1
"20/09/24","18:20",0.0,23.9,79.4,1003.6,290.8,1.0,2.0,351.3,0.00,20.2,25.0,"18:18:32",1
"20/09/24","18:30",0.0,23.8,79.6,1003.1,314.7,1.6,3.1,334.1,0.00,20.1,25.0,"18:20:48",1
"20/09/24","18:40",0.0,23.9,79.6,1003.4,326.6,1.3,2.7,345.9,0.00,20.2,24.9,"18:30:40",1
"20/09/24","18:50",0.0,23.8,79.7,1003.8,317.0,1.3,2.8,334.7,0.00,20.1,24.7,"18:42:00",1
"20/09/24","19:00",0.0,23.8,80.0,1003.8,311.9,1.3,2.9,339.5,0.00,20.2,24.7,"18:51:44",1
"20/09/24","19:10",0.0,23.8,80.3,1003.6,301.1,1.2,2.2,319.5,0.00,20.2,24.7,"19:03:44",1
"20/09/24","19:20",0.0,23.8,80.5,1003.8,328.4,1.5,2.4,313.8,0.00,20.3,24.7,"19:18:48",1
"20/09/24","19:30",0.0,23.8,81.0,1003.6,317.0,1.5,3.2,349.8,0.00,20.4,24.5,"19:29:28",1
"20/09/24","19:40",0.0,23.9,81.5,1003.6,331.0,2.1,3.7,320.9,0.00,20.6,24.5,"19:38:08",1
"20/09/24","19:50",0.0,23.8,81.8,1004.1,309.5,1.7,3.1,334.9,0.00,20.5,24.5,"19:44:24",1
"20/09/24","20:00",0.0,23.7,81.9,1004.3,285.6,0.8,1.7,268.8,0.00,20.5,24.6,"19:54:16",1
"20/09/24","20:10",0.0,23.6,82.2,1004.1,309.1,1.1,2.1,341.8,0.00,20.4,24.3,"20:07:36",1
"20/09/24","20:20",0.0,23.5,82.6,1004.1,313.3,1.3,2.2,323.5,0.00,20.4,24.5,"20:18:08",1
"20/09/24","20:30",0.0,23.5,82.7,1004.1,331.2,1.5,2.9,336.4,0.00,20.4,24.2,"20:20:56",1
"20/09/24","20:40",0.0,23.4,82.8,1004.1,326.8,1.2,2.4,336.6,0.00,20.3,24.4,"20:33:52",1
"20/09/24","20:50",0.0,23.4,83.1,1003.8,328.4,1.1,1.8,339.9,0.00,20.4,24.4,"20:42:48",1
"20/09/24","21:00",0.0,23.2,83.7,1004.1,324.9,1.5,3.1,347.6,0.00,20.3,24.2,"20:51:36",1
"20/09/24","21:10",0.0,23.1,84.3,1004.1,321.4,1.6,2.1,317.3,0.00,20.3,24.2,"21:01:36",1
"20/09/24","21:20",0.0,23.0,84.8,1004.1,321.0,1.7,2.6,337.5,0.00,20.3,24.0,"21:16:24",1
"20/09/24","21:30",0.0,23.0,85.2,1004.1,311.6,1.3,2.7,335.1,0.00,20.4,24.2,"21:24:32",1
"20/09/24","21:40",0.0,22.9,85.5,1003.8,305.7,1.2,2.7,339.1,0.00,20.4,24.1,"21:35:28",1
"20/09/24","21:50",0.0,22.8,85.9,1003.6,312.7,1.3,3.1,325.7,0.00,20.4,24.3,"21:49:12",1
"20/09/24","22:00",0.0,22.7,86.4,1004.3,312.7,1.3,2.6,353.8,0.00,20.4,24.2,"21:56:40",1
"20/09/24","22:10",0.0,22.7,86.8,1004.1,332.0,1.6,3.2,341.0,0.00,20.4,23.9,"22:02:08",1
"20/09/24","22:20",0.0,22.6,87.1,1003.8,321.7,1.3,2.0,337.0,0.00,20.4,24.2,"22:17:20",1
"20/09/24","22:30",0.0,22.6,87.5,1003.6,338.3,1.6,2.5,337.6,0.00,20.5,24.1,"22:25:20",1
"20/09/24","22:40",0.2,22.5,87.8,1003.8,329.4,1.6,2.6,327.2,0.00,20.4,23.9,"22:30:24",1
"20/09/24","22:50",0.2,22.4,88.3,1004.3,274.2,1.2,2.1,311.3,0.00,20.4,24.1,"22:40:16",1
"20/09/24","23:00",1.6,22.5,88.8,1004.3,335.7,1.3,2.2,27.9,0.00,20.6,24.0,"22:55:30",1
"20/09/24","23:10",0.4,22.2,89.2,1003.8,332.2,1.5,2.2,345.7,0.00,20.4,23.8,"23:07:52",1
"20/09/24","23:20",0.2,22.1,89.7,1003.8,316.3,1.7,2.6,337.3,0.00,20.4,23.9,"23:11:12",1
"20/09/24","23:30",0.2,22.1,90.2,1003.8,320.3,1.6,3.1,344.1,0.00,20.5,23.7,"23:25:28",1
"20/09/24","23:40",0.2,22.0,90.6,1003.6,322.1,1.6,2.6,318.0,0.00,20.4,23.8,"23:38:00",1
"20/09/24","23:50",0.0,21.9,90.9,1004.1,318.7,1.3,2.2,315.7,0.00,20.4,23.7,"23:44:08",1
"20/09/24","24:00",0.4,21.9,91.1,1004.1,301.1,1.1,2.6,317.6,0.00,20.4,23.8,"23:57:28",1
